Regional Weather Roundup
Issued by NWS

Home | Current Version | Previous Version | Graphics & Text | Print | Product List | Glossary On
Versions: 1 2 3 4 5 6 7 8 9 10 11 12 13 14 15 16 17 18 19 20 21 22 23 24 25 26 27 28 29 30 31 32 33 34 35 36 37 38 39 40 41 42 43 44 45 46 47 48 49 50
000
ASUS43 KTOP 291508
RWRKS

WEATHER ROUNDUP FOR KANSAS
NATIONAL WEATHER SERVICE GOODLAND KS
1000 AM CDT SUN MAR 29 2015

NOTE:  "FAIR" INDICATES FEW OR NO CLOUDS BELOW 12,000 FEET WITH NO
SIGNIFICANT WEATHER AND/OR OBSTRUCTIONS TO VISIBILITY.

KSZ001>006-013>018-027>032-041>047-291600-
NORTHWEST KANSAS

CITY           SKY/WX    TMP DP  RH WIND       PRES   REMARKS
GOODLAND       SUNNY     53  24  32 NW36G44   30.19R
HAYS           CLOUDY    61  37  41 N17G24    30.07R
HILL CITY      PTSUNNY   60  24  25 NW32G40   30.10R
RUSSELL        PTSUNNY   63  35  35 N21       30.03R
$$

KSZ061>065-074>080-084>089-291600-
SOUTHWEST KANSAS

CITY           SKY/WX    TMP DP  RH WIND       PRES   REMARKS
DODGE CITY     SUNNY     62  34  35 N32G43    30.07R
ELKHART          N/A     58  33  39 N23         N/A
GARDEN CITY    SUNNY     58  30  34 N29G36    30.13R
GREAT BEND     MOSUNNY   64  34  32 N25G32    30.04R
LIBERAL        SUNNY     61  36  39 N32       30.13R
PRATT          PTSUNNY   61  37  41 N24G30    30.01R
$$

KSZ066>073-081>083-090>101-291600-
SOUTHEAST KANSAS

CITY           SKY/WX    TMP DP  RH WIND       PRES   REMARKS
CHANUTE        PTSUNNY   47  39  74 SW6       30.03F
COFFEYVILLE    MOSUNNY   52  38  58 SW12G17   30.02R
HUTCHINSON     PTSUNNY   58  45  62 W6        29.99R
MEDICINE LODGE   N/A     57  47  69 NW3       29.98R
NEWTON         PTSUNNY   54  43  66 SW6       30.00R
PARSONS        PTSUNNY   49  39  68 N9        30.09R
WICHITA INTL   PTSUNNY   54  44  69 SW8       29.98R
WICHITA JABRA  MOSUNNY   55  44  66 S7        29.99R
WICHITA MCCONL MOSUNNY   54  45  70 S7        29.98R
WINFIELD       PTSUNNY   53  44  71 S8        29.99F
$$

KSZ007>012-019>026-033>040-048>060-102>105-291600-
NORTHEAST KANSAS

CITY           SKY/WX    TMP DP  RH WIND       PRES   REMARKS
CONCORDIA      PTSUNNY   57  42  57 NW9       30.00R
EMPORIA        PTSUNNY   51  42  71 SW8       29.99R
LAWRENCE       CLOUDY    46  37  71 S10       29.98F
MANHATTAN      PTSUNNY   56  45  66 SW9       29.98R
MARYSVILLE     CLOUDY    52  43  71 W6        29.97S
OLATHE IND     CLOUDY    44  36  73 S13G22    29.99F
OLATHE EXE     CLOUDY    44  36  73 S14G25    29.98F
SALINA         CLOUDY    60  45  57 NW6       29.99R
TOPEKA BILLARD PTSUNNY   51  41  68 S8        29.98R
TOPEKA FORBES  PTSUNNY   52  41  66 S14       29.96F
$$



USA.gov is the U.S. government's official web portal to all federal, state and local government web resources and services.